Погода в Кринице

Россия / Воронежская область     50°53′12″N   39°14′27″E
темп.,
°C
ветер,
м/с
пор.,
м/с
влажн.,
%
обл.,
%
осадки,
мм/ч
давл.,
гПа
погр.,
м
11 апреля, вс
вс1100:00+5с3765100 0.0 1026121
03:00+4с387031 0.0 1027151
06:00+4с41269100 0.0 1027292
09:00+7ссв61160100 0.0 1028582
12:00+10ссв71047100 0.0 1027832
15:00+11ссв7114682 0.0 1026887
18:00+10ссв7125267 0.0 1026764
21:00+9ссв61256100 0.0 1026545
12 апреля, пн
пн1200:00+8св5990100 0.0 1026342
03:00+7св51094100 0.0 1026285
06:00+6св4109680 0.0 1025271
09:00+11всв697791 0.0 1025374
12:00+18в695196 0.0 1023742
15:00+22вюв793411 0.0 10221532
18:00+20вюв59455 0.0 1022246
21:00+14вюв4126265 0.0 1024225
13 апреля, вт
вт1300:00+12вюв41270100 0.0 1024211
03:00+11вюв41070100 0.0 1024182
06:00+10вюв31170100 0.0 1024207
09:00+15юв5955100 0.0 1024395
12:00+19юв6938100 0.0 10231151
15:00+21юв683228 0.0 10221420
18:00+19юв48435 0.0 1021217
21:00+15вюв4105685 0.0 1022187
14 апреля, ср
ср1400:00+13вюв2263100 0.0 102223
03:00+11в366299 0.0 1021103
06:00+9вюв3765100 0.0 1021122
09:00+14юв5104794 0.0 1021463
12:00+19юв67284 0.0 10191349
15:00+20юв562773 0.0 10181857
18:00+18вюв3343100 0.0 101757
21:00+14в2245100 0.0 101717
15 апреля, чт
чт1500:00+13в335198 0.0 101653
03:00+11в3657100 0.0 1015101
06:00+10всв2364100 0.0 101449
09:00+14вюв4754100 0.0 1013428
12:00+17ююв4450100 0.2 10121437
15:00+12ю61076100 1.4 1012805
18:00+12ю4107387 0.1 10121139
21:00+10ю257731 0.1 1012119